| time (UTC) | temp C | wind direction | speed KPH | gust KPH | rain 1hr cm | rain 24hr cm | rain mn cm | humidity % | barometer mb |
| 20260903033916 | 15 | 155 | 0.0 | 3.2 | 0.00 | 0.00 | 0.00 | 93 | 1019.9 |
| 20260903033411 | 15 | 156 | 3.2 | 3.2 | 0.00 | 0.00 | 0.00 | 93 | 1019.8 |
| 20260903032906 | 15 | 157 | 0.0 | 3.2 | 0.00 | 0.00 | 0.00 | 93 | 1020.0 |
| 20260903032401 | 15 | 141 | 0.0 | 0.0 | 0.00 | 0.00 | 0.00 | 93 | 1019.8 |
| 20260903031856 | 15 | 141 | 0.0 | 0.0 | 0.00 | 0.00 | 0.00 | 92 | 1019.9 |
| 20260903031355 | 15 | 141 | 0.0 | 0.0 | 0.00 | 0.00 | 0.00 | 92 | 1019.9 |
| 20260903030851 | 15 | 142 | 0.0 | 0.0 | 0.00 | 0.00 | 0.00 | 93 | 1020.2 |
| 20260903030347 | 15 | 145 | 0.0 | 3.2 | 0.00 | 0.00 | 0.00 | 93 | 1020.2 |
| 20260903025843 | 15 | 117 | 0.0 | 3.2 | 0.00 | 0.00 | 0.00 | 93 | 1020.1 |
| 20260903025338 | 15 | 100 | 0.0 | 0.0 | 0.00 | 0.00 | 0.00 | 93 | 1020.3 |
| 20260903024837 | 15 | 100 | 0.0 | 0.0 | 0.00 | 0.00 | 0.00 | 93 | 1020.0 |
| 20260903024332 | 15 | 100 | 0.0 | 0.0 | 0.00 | 0.00 | 0.00 | 93 | 1020.0 |
| 20260903023828 | 15 | 99 | 0.0 | 0.0 | 0.00 | 0.00 | 0.00 | 93 | 1020.0 |
| 20260903023323 | 15 | 99 | 1.6 | 3.2 | 0.00 | 0.00 | 0.00 | 94 | 1019.9 |
| 20260903022818 | 15 | 99 | 0.0 | 0.0 | 0.00 | 0.00 | 0.00 | 93 | 1020.0 |
| 20260903022317 | 15 | 99 | 0.0 | 0.0 | 0.00 | 0.00 | 0.00 | 93 | 1020.1 |
| 20260903021817 | 15 | 99 | 1.6 | 3.2 | 0.00 | 0.00 | 0.00 | 93 | 1020.1 |
| 20260903021313 | 15 | 100 | 0.0 | 3.2 | 0.00 | 0.00 | 0.00 | 93 | 1020.4 |
| 20260903020812 | 15 | 100 | 0.0 | 3.2 | 0.00 | 0.00 | 0.00 | 93 | 1020.4 |
| 20260903020307 | 15 | 100 | 0.0 | 0.0 | 0.00 | 0.00 | 0.00 | 93 | 1020.5 |
| 20260903015803 | 15 | 100 | 0.0 | 0.0 | 0.00 | 0.00 | 0.00 | 93 | 1020.3 |
| 20260903015258 | 15 | 100 | 0.0 | 3.2 | 0.00 | 0.00 | 0.00 | 93 | 1020.3 |
| 20260903014753 | 15 | 100 | 0.0 | 3.2 | 0.00 | 0.00 | 0.00 | 93 | 1020.2 |
| 20260903014252 | 15 | 102 | 3.2 | 3.2 | 0.00 | 0.00 | 0.00 | 93 | 1020.3 |
| 20260903013748 | 15 | 102 | 0.0 | 3.2 | 0.00 | 0.00 | 0.00 | 93 | 1020.3 |
| 20260903013246 | 16 | 102 | 3.2 | 3.2 | 0.00 | 0.00 | 0.00 | 93 | 1019.9 |
| 20260903012745 | 16 | 102 | 3.2 | 4.8 | 0.00 | 0.00 | 0.00 | 92 | 1020.1 |
| 20260903012245 | 16 | 103 | 0.0 | 3.2 | 0.00 | 0.00 | 0.00 | 92 | 1020.0 |
| 20260903011739 | 16 | 103 | 0.0 | 3.2 | 0.00 | 0.00 | 0.00 | 92 | 1020.3 |
| 20260903011234 | 16 | 103 | 0.0 | 3.2 | 0.00 | 0.00 | 0.00 | 92 | 1020.4 |
| 20260903010730 | 16 | 103 | 0.0 | 3.2 | 0.00 | 0.00 | 0.00 | 92 | 1020.1 |
| 20260903010230 | 16 | 103 | 3.2 | 3.2 | 0.00 | 0.00 | 0.00 | 92 | 1020.2 |
| 20260903005728 | 16 | 103 | 1.6 | 3.2 | 0.00 | 0.00 | 0.00 | 92 | 1020.5 |
| 20260903005223 | 16 | 103 | 3.2 | 3.2 | 0.00 | 0.00 | 0.00 | 92 | 1020.4 |
| 20260903004719 | 16 | 103 | 3.2 | 3.2 | 0.00 | 0.00 | 0.00 | 92 | 1020.3 |
| 20260903004214 | 16 | 103 | 1.6 | 3.2 | 0.00 | 0.00 | 0.00 | 92 | 1020.0 |
| 20260903003710 | 16 | 103 | 3.2 | 3.2 | 0.00 | 0.00 | 0.00 | 91 | 1020.0 |
| 20260903003205 | 16 | 103 | 3.2 | 3.2 | 0.00 | 0.00 | 0.00 | 91 | 1020.0 |
| 20260903002700 | 16 | 103 | 3.2 | 3.2 | 0.00 | 0.00 | 0.00 | 90 | 1020.0 |
| 20260903002154 | 16 | 103 | 0.0 | 3.2 | 0.00 | 0.00 | 0.00 | 90 | 1020.0 |
| 20260903001649 | 16 | 103 | 3.2 | 3.2 | 0.00 | 0.00 | 0.00 | 90 | 1020.0 |
| 20260903001143 | 16 | 103 | 1.6 | 3.2 | 0.00 | 0.00 | 0.00 | 89 | 1020.1 |
| 20260903000639 | 16 | 103 | 1.6 | 3.2 | 0.00 | 0.00 | 0.00 | 89 | 1020.1 |
| 20260903000138 | 16 | 103 | 1.6 | 3.2 | 0.00 | 0.00 | 0.00 | 88 | 1020.3 |
| 20260902235637 | 16 | 103 | 0.0 | 3.2 | 0.00 | 0.00 | 0.00 | 88 | 1020.1 |
| 20260902235132 | 16 | 103 | 0.0 | 3.2 | 0.00 | 0.00 | 0.00 | 87 | 1020.1 |
| 20260902234626 | 17 | 103 | 3.2 | 3.2 | 0.00 | 0.00 | 0.00 | 86 | 1020.2 |
| 20260902234124 | 17 | 103 | 0.0 | 0.0 | 0.00 | 0.00 | 0.00 | 85 | 1020.3 |
| 20260902233619 | 17 | 103 | 1.6 | 3.2 | 0.00 | 0.00 | 0.00 | 85 | 1020.2 |
| 20260902233113 | 17 | 103 | 0.0 | 3.2 | 0.00 | 0.00 | 0.00 | 84 | 1020.3 |
| 20260902232608 | 17 | 103 | 0.0 | 3.2 | 0.00 | 0.00 | 0.00 | 84 | 1020.4 |
| 20260902232107 | 17 | 103 | 1.6 | 3.2 | 0.00 | 0.00 | 0.00 | 84 | 1020.7 |
| 20260902231602 | 17 | 103 | 0.0 | 3.2 | 0.00 | 0.00 | 0.00 | 83 | 1021.0 |
| 20260902231101 | 17 | 103 | 0.0 | 3.2 | 0.00 | 0.00 | 0.00 | 83 | 1020.8 |
| 20260902230556 | 17 | 103 | 0.0 | 3.2 | 0.00 | 0.00 | 0.00 | 83 | 1021.0 |
| 20260902230055 | 17 | 103 | 1.6 | 3.2 | 0.00 | 0.00 | 0.00 | 83 | 1021.0 |
| 20260902225551 | 17 | 103 | 0.0 | 3.2 | 0.00 | 0.00 | 0.00 | 82 | 1021.0 |
| 20260902225045 | 17 | 103 | 1.6 | 3.2 | 0.00 | 0.00 | 0.00 | 82 | 1021.0 |
| 20260902224544 | 17 | 103 | 0.0 | 3.2 | 0.00 | 0.00 | 0.00 | 82 | 1021.1 |
| 20260902224040 | 17 | 103 | 0.0 | 3.2 | 0.00 | 0.00 | 0.00 | 82 | 1020.9 |
| 20260902223536 | 17 | 103 | 0.0 | 3.2 | 0.00 | 0.00 | 0.00 | 82 | 1021.3 |
| 20260902223035 | 17 | 103 | 0.0 | 3.2 | 0.00 | 0.00 | 0.00 | 81 | 1021.2 |
| 20260902222534 | 17 | 103 | 0.0 | 3.2 | 0.00 | 0.00 | 0.00 | 81 | 1021.4 |
| 20260902222032 | 17 | 103 | 1.6 | 3.2 | 0.00 | 0.00 | 0.00 | 81 | 1021.3 |
| 20260902221527 | 17 | 103 | 0.0 | 3.2 | 0.00 | 0.00 | 0.00 | 82 | 1021.4 |
| 20260902221022 | 17 | 103 | 3.2 | 3.2 | 0.00 | 0.00 | 0.00 | 81 | 1021.3 |
| 20260902220518 | 17 | 103 | 0.0 | 3.2 | 0.00 | 0.00 | 0.00 | 80 | 1021.3 |
| 20260902220012 | 17 | 103 | 0.0 | 3.2 | 0.00 | 0.00 | 0.00 | 79 | 1021.3 |
| 20260902215508 | 17 | 104 | 1.6 | 3.2 | 0.00 | 0.00 | 0.00 | 80 | 1021.3 |
| 20260902215004 | 17 | 104 | 0.0 | 3.2 | 0.00 | 0.00 | 0.00 | 80 | 1021.3 |
| 20260902214503 | 17 | 104 | 0.0 | 3.2 | 0.00 | 0.00 | 0.00 | 79 | 1021.3 |
| 20260902214002 | 17 | 104 | 0.0 | 3.2 | 0.00 | 0.00 | 0.00 | 79 | 1021.1 |
| 20260902213458 | 17 | 103 | 0.0 | 3.2 | 0.00 | 0.00 | 0.00 | 78 | 1021.4 |
| 20260902212957 | 18 | 103 | 0.0 | 3.2 | 0.00 | 0.00 | 0.00 | 78 | 1021.3 |
| 20260902212453 | 18 | 104 | 0.0 | 3.2 | 0.00 | 0.00 | 0.00 | 78 | 1021.3 |
| 20260902211949 | 18 | 104 | 1.6 | 3.2 | 0.00 | 0.00 | 0.00 | 78 | 1021.4 |
| 20260902211445 | 18 | 105 | 0.0 | 3.2 | 0.00 | 0.00 | 0.00 | 77 | 1021.4 |
| 20260902210945 | 18 | 102 | 0.0 | 3.2 | 0.00 | 0.00 | 0.00 | 77 | 1021.4 |
| 20260902210440 | 18 | 102 | 1.6 | 3.2 | 0.00 | 0.00 | 0.00 | 77 | 1021.2 |
| 20260902205933 | 18 | 102 | 3.2 | 3.2 | 0.00 | 0.00 | 0.00 | 78 | 1021.5 |
| 20260902205428 | 18 | 125 | 0.0 | 3.2 | 0.00 | 0.00 | 0.00 | 79 | 1021.5 |
| 20260902204924 | 18 | 125 | 1.6 | 3.2 | 0.00 | 0.00 | 0.00 | 79 | 1021.2 |
| 20260902204423 | 18 | 125 | 0.0 | 0.0 | 0.00 | 0.00 | 0.00 | 78 | 1021.6 |
| 20260902203918 | 18 | 125 | 0.0 | 3.2 | 0.00 | 0.00 | 0.00 | 78 | 1021.7 |
| 20260902203414 | 18 | 125 | 1.6 | 3.2 | 0.00 | 0.00 | 0.00 | 77 | 1022.0 |
| 20260902202913 | 18 | 125 | 0.0 | 0.0 | 0.00 | 0.00 | 0.00 | 78 | 1021.9 |
| 20260902202409 | 18 | 125 | 0.0 | 3.2 | 0.00 | 0.00 | 0.00 | 77 | 1021.9 |
| 20260902201905 | 18 | 125 | 0.0 | 3.2 | 0.00 | 0.00 | 0.00 | 77 | 1021.9 |
| 20260902201405 | 18 | 125 | 0.0 | 3.2 | 0.00 | 0.00 | 0.00 | 77 | 1021.9 |
| 20260902200900 | 18 | 125 | 3.2 | 3.2 | 0.00 | 0.00 | 0.00 | 76 | 1022.2 |
| 20260902200355 | 18 | 127 | 3.2 | 3.2 | 0.00 | 0.00 | 0.00 | 75 | 1021.6 |
| 20260902195850 | 18 | 118 | 0.0 | 3.2 | 0.00 | 0.00 | 0.00 | 76 | 1021.7 |
| 20260902195349 | 18 | 118 | 0.0 | 3.2 | 0.00 | 0.00 | 0.00 | 75 | 1021.9 |
| 20260902194844 | 18 | 119 | 3.2 | 3.2 | 0.00 | 0.00 | 0.00 | 75 | 1021.9 |
| 20260902194339 | 18 | 119 | 0.0 | 3.2 | 0.00 | 0.00 | 0.00 | 75 | 1021.8 |
| 20260902193835 | 18 | 117 | 0.0 | 3.2 | 0.00 | 0.00 | 0.00 | 75 | 1022.0 |
| 20260902193331 | 18 | 115 | 0.0 | 3.2 | 0.00 | 0.00 | 0.00 | 76 | 1022.2 |
| 20260902192829 | 18 | 103 | 3.2 | 3.2 | 0.00 | 0.00 | 0.00 | 75 | 1022.1 |
| 20260902192327 | 19 | 103 | 0.0 | 3.2 | 0.00 | 0.00 | 0.00 | 73 | 1022.2 |
| 20260902191822 | 19 | 103 | 1.6 | 3.2 | 0.00 | 0.00 | 0.00 | 74 | 1022.2 |
| 20260902191318 | 18 | 107 | 0.0 | 3.2 | 0.00 | 0.00 | 0.00 | 73 | 1022.2 |
| 20260902190813 | 18 | 101 | 0.0 | 3.2 | 0.00 | 0.00 | 0.00 | 73 | 1022.1 |
| 20260902190312 | 18 | 102 | 1.6 | 3.2 | 0.00 | 0.00 | 0.00 | 73 | 1022.2 |
| 20260902185809 | 18 | 102 | 1.6 | 3.2 | 0.00 | 0.00 | 0.00 | 72 | 1022.4 |
| 20260902185306 | 18 | 102 | 1.6 | 3.2 | 0.00 | 0.00 | 0.00 | 73 | 1022.2 |
| 20260902184759 | 18 | 102 | 1.6 | 3.2 | 0.00 | 0.00 | 0.00 | 73 | 1022.4 |
| 20260902184255 | 18 | 106 | 0.0 | 3.2 | 0.00 | 0.00 | 0.00 | 73 | 1022.5 |
| 20260902183750 | 18 | 107 | 0.0 | 3.2 | 0.00 | 0.00 | 0.00 | 73 | 1022.5 |
| 20260902183246 | 18 | 107 | 1.6 | 3.2 | 0.00 | 0.00 | 0.00 | 72 | 1022.4 |
| 20260902182742 | 19 | 109 | 0.0 | 3.2 | 0.00 | 0.00 | 0.00 | 73 | 1022.6 |
| 20260902182238 | 18 | 105 | 0.0 | 3.2 | 0.00 | 0.00 | 0.00 | 74 | 1022.3 |
| 20260902181735 | 18 | 107 | 3.2 | 3.2 | 0.00 | 0.00 | 0.00 | 74 | 1022.4 |
| 20260902181234 | 18 | 135 | 1.6 | 3.2 | 0.00 | 0.00 | 0.00 | 73 | 1022.4 |
| 20260902180729 | 18 | 139 | 3.2 | 3.2 | 0.00 | 0.00 | 0.00 | 72 | 1022.5 |
| 20260902180224 | 18 | 115 | 3.2 | 3.2 | 0.00 | 0.00 | 0.00 | 72 | 1022.6 |
| 20260902175719 | 18 | 166 | 3.2 | 4.8 | 0.00 | 0.00 | 0.00 | 73 | 1022.6 |
| 20260902175215 | 18 | 139 | 0.0 | 3.2 | 0.00 | 0.00 | 0.00 | 73 | 1022.6 |
| 20260902174711 | 18 | 203 | 3.2 | 4.8 | 0.00 | 0.00 | 0.00 | 73 | 1022.6 |
| 20260902174207 | 18 | 132 | 0.0 | 3.2 | 0.00 | 0.00 | 0.00 | 73 | 1022.5 |
| 20260902173702 | 18 | 127 | 0.0 | 4.8 | 0.00 | 0.00 | 0.00 | 74 | 1022.4 |
| 20260902173156 | 18 | 139 | 0.0 | 3.2 | 0.00 | 0.00 | 0.00 | 73 | 1022.6 |
| 20260902172651 | 18 | 144 | 1.6 | 3.2 | 0.00 | 0.00 | 0.00 | 72 | 1022.7 |
| 20260902172150 | 19 | 106 | 0.0 | 0.0 | 0.00 | 0.00 | 0.00 | 71 | 1022.7 |
| 20260902171645 | 19 | 106 | 0.0 | 3.2 | 0.00 | 0.00 | 0.00 | 71 | 1022.4 |
| 20260902171141 | 19 | 114 | 0.0 | 3.2 | 0.00 | 0.00 | 0.00 | 71 | 1022.3 |
| 20260902170637 | 19 | 126 | 0.0 | 3.2 | 0.00 | 0.00 | 0.00 | 70 | 1022.4 |
| 20260902170132 | 18 | 105 | 1.6 | 3.2 | 0.00 | 0.00 | 0.00 | 71 | 1022.3 |
| 20260902165627 | 18 | 113 | 3.2 | 3.2 | 0.00 | 0.00 | 0.00 | 71 | 1022.3 |
| 20260902165127 | 18 | 103 | 1.6 | 3.2 | 0.00 | 0.00 | 0.00 | 71 | 1022.2 |
| 20260902164622 | 18 | 103 | 0.0 | 3.2 | 0.00 | 0.00 | 0.00 | 71 | 1022.3 |
| 20260902164121 | 18 | 103 | 3.2 | 3.2 | 0.00 | 0.00 | 0.00 | 70 | 1022.4 |
| 20260902163616 | 18 | 103 | 0.0 | 3.2 | 0.00 | 0.00 | 0.00 | 70 | 1022.5 |
| 20260902163115 | 18 | 103 | 1.6 | 3.2 | 0.00 | 0.00 | 0.00 | 68 | 1022.7 |
| 20260902162614 | 18 | 102 | 0.0 | 3.2 | 0.00 | 0.00 | 0.00 | 68 | 1022.7 |
| 20260902162109 | 18 | 103 | 0.0 | 3.2 | 0.00 | 0.00 | 0.00 | 67 | 1022.7 |
| 20260902161605 | 18 | 99 | 0.0 | 3.2 | 0.00 | 0.00 | 0.00 | 69 | 1022.9 |
| 20260902161100 | 18 | 98 | 1.6 | 3.2 | 0.00 | 0.00 | 0.00 | 71 | 1022.8 |
| 20260902160550 | 18 | 96 | 0.0 | 3.2 | 0.00 | 0.00 | 0.00 | 76 | 1022.9 |
| 20260902160045 | 18 | 96 | 0.0 | 3.2 | 0.00 | 0.00 | 0.00 | 77 | 1022.8 |
| 20260902155538 | 18 | 103 | 1.6 | 3.2 | 0.00 | 0.00 | 0.00 | 79 | 1022.9 |
| 20260902155037 | 18 | 98 | 1.6 | 3.2 | 0.00 | 0.00 | 0.00 | 81 | 1022.9 |
| 20260902154533 | 18 | 136 | 0.0 | 4.8 | 0.00 | 0.00 | 0.00 | 82 | 1022.9 |
| 20260902154027 | 19 | 200 | 4.8 | 4.8 | 0.00 | 0.00 | 0.00 | 82 | 1023.1 |
| 20260902153526 | 19 | 114 | 0.0 | 4.8 | 0.00 | 0.00 | 0.00 | 82 | 1023.1 |
| 20260902153022 | 19 | 100 | 1.6 | 3.2 | 0.00 | 0.00 | 0.00 | 82 | 1023.1 |
| 20260902152518 | 19 | 101 | 1.6 | 3.2 | 0.00 | 0.00 | 0.00 | 81 | 1023.1 |
| 20260902152013 | 19 | 94 | 0.0 | 3.2 | 0.00 | 0.00 | 0.00 | 82 | 1022.9 |
| 20260902151509 | 18 | 167 | 3.2 | 4.8 | 0.00 | 0.00 | 0.00 | 82 | 1022.8 |
| 20260902151008 | 18 | 108 | 0.0 | 3.2 | 0.00 | 0.00 | 0.00 | 83 | 1022.8 |
| 20260902150504 | 18 | 121 | 0.0 | 4.8 | 0.00 | 0.00 | 0.00 | 84 | 1022.9 |
| 20260902150004 | 18 | 134 | 1.6 | 3.2 | 0.00 | 0.00 | 0.00 | 84 | 1023.0 |
| 20260902145459 | 18 | 103 | 0.0 | 3.2 | 0.00 | 0.00 | 0.00 | 84 | 1022.8 |
| 20260902144953 | 18 | 104 | 0.0 | 3.2 | 0.00 | 0.00 | 0.00 | 84 | 1022.6 |
| 20260902144449 | 18 | 131 | 0.0 | 3.2 | 0.00 | 0.00 | 0.00 | 85 | 1022.8 |
| 20260902143944 | 18 | 95 | 0.0 | 0.0 | 0.00 | 0.00 | 0.00 | 85 | 1022.7 |
| 20260902143440 | 18 | 95 | 0.0 | 0.0 | 0.00 | 0.00 | 0.00 | 85 | 1022.9 |
| 20260902142935 | 18 | 118 | 0.0 | 3.2 | 0.00 | 0.00 | 0.00 | 85 | 1022.7 |
| 20260902142431 | 18 | 100 | 0.0 | 3.2 | 0.00 | 0.00 | 0.00 | 86 | 1022.7 |
| 20260902141926 | 18 | 92 | 1.6 | 3.2 | 0.00 | 0.00 | 0.00 | 85 | 1023.0 |
| 20260902141421 | 18 | 102 | 0.0 | 3.2 | 0.00 | 0.00 | 0.00 | 84 | 1022.7 |
| 20260902140920 | 18 | 85 | 0.0 | 3.2 | 0.00 | 0.00 | 0.00 | 85 | 1022.7 |
| 20260902140416 | 17 | 83 | 0.0 | 3.2 | 0.00 | 0.00 | 0.00 | 86 | 1022.7 |
| 20260902135915 | 17 | 98 | 0.0 | 0.0 | 0.00 | 0.00 | 0.00 | 86 | 1022.5 |
| 20260902135412 | 17 | 99 | 0.0 | 3.2 | 0.00 | 0.00 | 0.00 | 87 | 1022.8 |
| 20260902134910 | 17 | 89 | 0.0 | 3.2 | 0.00 | 0.00 | 0.00 | 87 | 1022.6 |
| 20260902134407 | 17 | 87 | 0.0 | 3.2 | 0.00 | 0.00 | 0.00 | 88 | 1022.6 |
| 20260902133907 | 17 | 86 | 0.0 | 3.2 | 0.00 | 0.00 | 0.00 | 88 | 1022.6 |
| 20260902133401 | 17 | 86 | 0.0 | 3.2 | 0.00 | 0.00 | 0.00 | 90 | 1022.7 |
| 20260902132856 | 17 | 86 | 0.0 | 0.0 | 0.00 | 0.00 | 0.00 | 92 | 1022.5 |
| 20260902132351 | 16 | 86 | 0.0 | 0.0 | 0.00 | 0.00 | 0.00 | 92 | 1022.8 |
| 20260902131846 | 16 | 87 | 0.0 | 3.2 | 0.00 | 0.00 | 0.00 | 93 | 1022.6 |
| 20260902131343 | 16 | 87 | 0.0 | 0.0 | 0.00 | 0.00 | 0.00 | 93 | 1022.7 |
| 20260902130842 | 16 | 87 | 0.0 | 3.2 | 0.00 | 0.00 | 0.00 | 93 | 1022.7 |
| 20260902130338 | 16 | 87 | 0.0 | 3.2 | 0.00 | 0.00 | 0.00 | 94 | 1022.8 |
| 20260902125833 | 16 | 86 | 0.0 | 0.0 | 0.00 | 0.00 | 0.00 | 94 | 1022.6 |
| 20260902125329 | 16 | 86 | 0.0 | 3.2 | 0.00 | 0.00 | 0.00 | 94 | 1022.8 |
| 20260902124825 | 16 | 85 | 0.0 | 0.0 | 0.00 | 0.00 | 0.00 | 93 | 1022.6 |
| 20260902124321 | 16 | 84 | 0.0 | 3.2 | 0.00 | 0.00 | 0.00 | 93 | 1022.5 |
| 20260902123815 | 16 | 85 | 1.6 | 3.2 | 0.00 | 0.00 | 0.00 | 92 | 1022.5 |
| 20260902123312 | 16 | 71 | 0.0 | 0.0 | 0.00 | 0.00 | 0.00 | 92 | 1022.6 |
| 20260902122810 | 16 | 95 | 0.0 | 3.2 | 0.00 | 0.00 | 0.00 | 92 | 1022.6 |
| 20260902122307 | 16 | 82 | 0.0 | 3.2 | 0.00 | 0.00 | 0.00 | 92 | 1022.5 |
| 20260902121806 | 16 | 71 | 0.0 | 3.2 | 0.00 | 0.00 | 0.00 | 92 | 1022.7 |
| 20260902121301 | 16 | 70 | 0.0 | 3.2 | 0.00 | 0.00 | 0.00 | 93 | 1022.5 |
| 20260902120751 | 16 | 70 | 0.0 | 0.0 | 0.00 | 0.00 | 0.00 | 93 | 1022.8 |
| 20260902120247 | 16 | 70 | 3.2 | 3.2 | 0.00 | 0.00 | 0.00 | 94 | 1022.8 |
| 20260902115741 | 16 | 62 | 0.0 | 0.0 | 0.00 | 0.00 | 0.00 | 95 | 1022.9 |
| 20260902115238 | 16 | 68 | 0.0 | 0.0 | 0.00 | 0.00 | 0.00 | 94 | 1022.7 |
| 20260902114733 | 16 | 68 | 0.0 | 0.0 | 0.00 | 0.00 | 0.00 | 95 | 1022.8 |
| 20260902114230 | 16 | 66 | 0.0 | 0.0 | 0.00 | 0.00 | 0.00 | 95 | 1022.7 |
| 20260902113724 | 16 | 66 | 0.0 | 0.0 | 0.00 | 0.00 | 0.00 | 95 | 1022.6 |
| 20260902113220 | 16 | 66 | 0.0 | 0.0 | 0.00 | 0.00 | 0.00 | 95 | 1022.7 |
| 20260902112719 | 16 | 54 | 0.0 | 3.2 | 0.00 | 0.00 | 0.00 | 95 | 1022.7 |
| 20260902112216 | 16 | 47 | 0.0 | 0.0 | 0.00 | 0.00 | 0.00 | 96 | 1022.6 |
| 20260902111711 | 16 | 199 | 3.2 | 3.2 | 0.00 | 0.00 | 0.00 | 96 | 1022.4 |
| 20260902111207 | 16 | 78 | 0.0 | 0.0 | 0.00 | 0.00 | 0.00 | 96 | 1022.5 |
| 20260902110703 | 15 | 77 | 0.0 | 0.0 | 0.00 | 0.00 | 0.00 | 96 | 1022.4 |
| 20260902110159 | 15 | 30 | 0.0 | 3.2 | 0.00 | 0.00 | 0.00 | 97 | 1022.4 |
| 20260902105658 | 15 | 89 | 0.0 | 0.0 | 0.00 | 0.00 | 0.00 | 97 | 1022.3 |
| 20260902105154 | 15 | 89 | 0.0 | 0.0 | 0.00 | 0.00 | 0.00 | 97 | 1022.2 |
| 20260902104649 | 15 | 87 | 0.0 | 3.2 | 0.00 | 0.00 | 0.00 | 97 | 1022.1 |
| 20260902104144 | 15 | 81 | 0.0 | 0.0 | 0.00 | 0.00 | 0.00 | 97 | 1022.0 |
| 20260902103643 | 15 | 79 | 0.0 | 0.0 | 0.00 | 0.00 | 0.00 | 97 | 1022.2 |
| 20260902103139 | 15 | 79 | 0.0 | 3.2 | 0.00 | 0.00 | 0.00 | 97 | 1022.1 |
| 20260902102635 | 15 | 151 | 3.2 | 3.2 | 0.00 | 0.00 | 0.00 | 97 | 1022.1 |
| 20260902102132 | 15 | 31 | 0.0 | 0.0 | 0.00 | 0.00 | 0.00 | 97 | 1022.2 |
| 20260902101627 | 15 | 31 | 0.0 | 3.2 | 0.00 | 0.00 | 0.00 | 97 | 1022.1 |
| 20260902101126 | 15 | 32 | 1.6 | 3.2 | 0.00 | 0.00 | 0.00 | 97 | 1021.8 |
| 20260902100621 | 15 | 34 | 0.0 | 0.0 | 0.00 | 0.00 | 0.00 | 97 | 1021.9 |
| 20260902100116 | 15 | 34 | 0.0 | 3.2 | 0.00 | 0.00 | 0.00 | 97 | 1021.8 |
| 20260902095615 | 15 | 40 | 0.0 | 0.0 | 0.00 | 0.00 | 0.00 | 97 | 1021.8 |
| 20260902095109 | 15 | 42 | 0.0 | 0.0 | 0.00 | 0.00 | 0.00 | 96 | 1021.8 |
| 20260902094604 | 15 | 43 | 0.0 | 0.0 | 0.00 | 0.00 | 0.00 | 96 | 1021.7 |
| 20260902094101 | 15 | 40 | 1.6 | 3.2 | 0.00 | 0.00 | 0.00 | 96 | 1021.6 |
| 20260902093559 | 15 | 49 | 0.0 | 0.0 | 0.00 | 0.00 | 0.00 | 96 | 1021.5 |
| 20260902093054 | 15 | 49 | 0.0 | 0.0 | 0.00 | 0.00 | 0.00 | 96 | 1021.6 |
| 20260902092549 | 15 | 49 | 0.0 | 0.0 | 0.00 | 0.00 | 0.00 | 96 | 1021.7 |
| 20260902092044 | 16 | 49 | 0.0 | 0.0 | 0.00 | 0.00 | 0.00 | 96 | 1021.7 |
| 20260902091539 | 16 | 49 | 0.0 | 3.2 | 0.00 | 0.00 | 0.00 | 96 | 1021.7 |
| 20260902091036 | 16 | 49 | 0.0 | 0.0 | 0.00 | 0.00 | 0.00 | 96 | 1021.8 |
| 20260902090531 | 16 | 49 | 0.0 | 0.0 | 0.00 | 0.00 | 0.00 | 96 | 1021.8 |
| 20260902090030 | 16 | 49 | 0.0 | 3.2 | 0.00 | 0.00 | 0.00 | 96 | 1021.8 |
| 20260902085525 | 16 | 49 | 0.0 | 3.2 | 0.00 | 0.00 | 0.00 | 96 | 1021.9 |
| 20260902085020 | 16 | 49 | 0.0 | 0.0 | 0.00 | 0.00 | 0.00 | 96 | 1021.8 |
| 20260902084516 | 16 | 49 | 0.0 | 3.2 | 0.00 | 0.00 | 0.00 | 96 | 1021.9 |
| 20260902084011 | 16 | 49 | 0.0 | 0.0 | 0.00 | 0.00 | 0.00 | 96 | 1021.7 |
| 20260902083507 | 16 | 49 | 0.0 | 0.0 | 0.00 | 0.00 | 0.00 | 96 | 1021.8 |
| 20260902083001 | 16 | 49 | 0.0 | 0.0 | 0.00 | 0.00 | 0.00 | 96 | 1021.8 |
| 20260902082456 | 16 | 49 | 0.0 | 0.0 | 0.00 | 0.00 | 0.00 | 96 | 1021.6 |
| 20260902081953 | 16 | 49 | 0.0 | 3.2 | 0.00 | 0.00 | 0.00 | 96 | 1021.8 |
| 20260902081449 | 16 | 49 | 3.2 | 3.2 | 0.00 | 0.00 | 0.00 | 96 | 1021.6 |
| 20260902080943 | 16 | 48 | 0.0 | 0.0 | 0.00 | 0.00 | 0.00 | 95 | 1021.7 |
| 20260902080439 | 16 | 48 | 0.0 | 0.0 | 0.00 | 0.00 | 0.00 | 95 | 1021.8 |
| 20260902075933 | 16 | 48 | 0.0 | 3.2 | 0.00 | 0.00 | 0.00 | 95 | 1021.7 |
| 20260902075429 | 16 | 49 | 0.0 | 0.0 | 0.00 | 0.00 | 0.00 | 95 | 1021.5 |
| 20260902074924 | 16 | 50 | 0.0 | 0.0 | 0.00 | 0.00 | 0.00 | 95 | 1021.5 |
| 20260902074420 | 16 | 50 | 0.0 | 0.0 | 0.00 | 0.00 | 0.00 | 95 | 1021.4 |
| 20260902073915 | 16 | 49 | 0.0 | 0.0 | 0.00 | 0.00 | 0.00 | 94 | 1021.5 |
| 20260902073411 | 16 | 49 | 0.0 | 0.0 | 0.00 | 0.00 | 0.00 | 95 | 1021.3 |
| 20260902072907 | 16 | 48 | 0.0 | 3.2 | 0.00 | 0.00 | 0.00 | 95 | 1021.3 |
| 20260902072403 | 16 | 48 | 0.0 | 0.0 | 0.00 | 0.00 | 0.00 | 95 | 1021.1 |
| 20260902071859 | 16 | 49 | 0.0 | 0.0 | 0.00 | 0.00 | 0.00 | 95 | 1021.3 |
| 20260902071358 | 16 | 46 | 0.0 | 3.2 | 0.00 | 0.00 | 0.00 | 95 | 1021.4 |
| 20260902070855 | 16 | 45 | 0.0 | 0.0 | 0.00 | 0.00 | 0.00 | 96 | 1021.2 |
| 20260902070350 | 16 | 43 | 0.0 | 0.0 | 0.00 | 0.00 | 0.00 | 96 | 1021.1 |
| 20260902065849 | 16 | 43 | 0.0 | 3.2 | 0.00 | 0.00 | 0.00 | 96 | 1021.2 |
| 20260902065344 | 16 | 98 | 0.0 | 0.0 | 0.00 | 0.00 | 0.00 | 96 | 1021.2 |
| 20260902064839 | 16 | 39 | 0.0 | 3.2 | 0.00 | 0.00 | 0.00 | 96 | 1021.3 |
| 20260902064335 | 16 | 37 | 1.6 | 3.2 | 0.00 | 0.00 | 0.00 | 96 | 1021.3 |
| 20260902063830 | 16 | 44 | 0.0 | 0.0 | 0.00 | 0.00 | 0.00 | 96 | 1021.3 |
| 20260902063325 | 16 | 44 | 0.0 | 0.0 | 0.00 | 0.00 | 0.00 | 96 | 1021.4 |
| 20260902062819 | 16 | 44 | 0.0 | 0.0 | 0.00 | 0.00 | 0.00 | 96 | 1021.2 |
| 20260902062314 | 16 | 44 | 0.0 | 0.0 | 0.00 | 0.00 | 0.00 | 96 | 1021.2 |
| 20260902061813 | 16 | 44 | 0.0 | 0.0 | 0.00 | 0.00 | 0.00 | 96 | 1021.1 |
| 20260902061309 | 16 | 44 | 0.0 | 0.0 | 0.00 | 0.00 | 0.00 | 96 | 1021.0 |
| 20260902060805 | 16 | 44 | 0.0 | 0.0 | 0.00 | 0.00 | 0.00 | 96 | 1021.1 |
| 20260902060301 | 16 | 42 | 1.6 | 3.2 | 0.00 | 0.00 | 0.00 | 96 | 1021.2 |
| 20260902055755 | 16 | 52 | 3.2 | 3.2 | 0.00 | 0.00 | 0.00 | 96 | 1021.3 |
| 20260902055247 | 16 | 53 | 0.0 | 0.0 | 0.00 | 0.00 | 0.00 | 95 | 1021.0 |
| 20260902054747 | 16 | 52 | 0.0 | 0.0 | 0.00 | 0.00 | 0.00 | 95 | 1020.7 |
| 20260902054243 | 16 | 52 | 1.6 | 3.2 | 0.00 | 0.00 | 0.00 | 95 | 1021.0 |
| 20260902053737 | 16 | 52 | 0.0 | 3.2 | 0.00 | 0.00 | 0.00 | 95 | 1021.1 |
| 20260902053236 | 16 | 53 | 0.0 | 0.0 | 0.00 | 0.00 | 0.00 | 95 | 1021.0 |
| 20260902052731 | 16 | 52 | 0.0 | 0.0 | 0.00 | 0.00 | 0.00 | 95 | 1021.0 |
| 20260902052227 | 16 | 52 | 0.0 | 3.2 | 0.00 | 0.00 | 0.00 | 95 | 1021.0 |
| 20260902051726 | 16 | 52 | 0.0 | 0.0 | 0.00 | 0.00 | 0.00 | 95 | 1020.8 |
| 20260902051220 | 16 | 53 | 0.0 | 0.0 | 0.00 | 0.00 | 0.00 | 95 | 1020.8 |
| 20260902050715 | 16 | 53 | 0.0 | 0.0 | 0.00 | 0.00 | 0.00 | 95 | 1020.6 |
| 20260902050210 | 16 | 53 | 0.0 | 0.0 | 0.00 | 0.00 | 0.00 | 95 | 1020.4 |
| 20260902045705 | 16 | 53 | 0.0 | 0.0 | 0.00 | 0.00 | 0.00 | 94 | 1020.6 |
| 20260902045201 | 17 | 53 | 0.0 | 0.0 | 0.00 | 0.00 | 0.00 | 94 | 1020.3 |
| 20260902044656 | 17 | 53 | 0.0 | 0.0 | 0.00 | 0.00 | 0.00 | 94 | 1020.2 |
| 20260902044152 | 17 | 53 | 0.0 | 0.0 | 0.00 | 0.00 | 0.00 | 93 | 1020.1 |
| 20260902043647 | 17 | 53 | 0.0 | 3.2 | 0.00 | 0.00 | 0.00 | 93 | 1020.2 |
| 20260902043142 | 17 | 73 | 0.0 | 0.0 | 0.00 | 0.00 | 0.00 | 93 | 1020.2 |
| 20260902042641 | 17 | 71 | 0.0 | 3.2 | 0.00 | 0.00 | 0.00 | 93 | 1020.1 |
| 20260902042137 | 17 | 59 | 0.0 | 3.2 | 0.00 | 0.00 | 0.00 | 93 | 1020.1 |
| 20260902041636 | 17 | 59 | 0.0 | 0.0 | 0.00 | 0.00 | 0.00 | 93 | 1020.4 |
| 20260902041137 | 17 | 59 | 0.0 | 0.0 | 0.00 | 0.00 | 0.00 | 93 | 1020.1 |
| 20260902040631 | 17 | 60 | 0.0 | 0.0 | 0.00 | 0.00 | 0.00 | 93 | 1020.3 |
| 20260902040126 | 17 | 62 | 0.0 | 0.0 | 0.00 | 0.00 | 0.00 | 93 | 1020.2 |
| 20260902035624 | 17 | 95 | 0.0 | 0.0 | 0.00 | 0.00 | 0.00 | 93 | 1019.9 |
| 20260902035120 | 17 | 95 | 0.0 | 0.0 | 0.00 | 0.00 | 0.00 | 92 | 1020.0 |
| 20260902034619 | 17 | 95 | 0.0 | 0.0 | 0.00 | 0.00 | 0.00 | 92 | 1020.0 |
| 20260902034113 | 17 | 95 | 0.0 | 0.0 | 0.00 | 0.00 | 0.00 | 93 | 1020.0 |